Weather History for Cocoa Beach, FL

Change the Weather History Date:

Friday, January 17, 2014

  Actual Average Record
Temperature  
Mean Temperature 52 °F -  
Max Temperature 61 °F 68 °F 82 °F (2013)
Min Temperature 44 °F 52 °F 39 °F (1997)
Degree Days  
Heating Degree Days 12    
Growing Degree Days 2 (Base 50)    
Moisture  
Dew Point 32 °F    
Average Humidity 49    
Maximum Humidity 68    
Minimum Humidity 11    
Precipitation  
Precipitation 0.00 in - - ()
Sea Level Pressure  
Sea Level Pressure 30.17 in    
Wind  
Wind Speed 8 mph (WSW)    
Max Wind Speed 15 mph    
Max Gust Speed -    
Visibility 9 miles    
Events      
Averages and records for this station are not official NWS values.
T = Trace of Precipitation, MM = Missing Value Source: NWS Daily Summary

Daily Weather History Graph

Daily Weather History Graph

Search for Another Location

Airport:

Trip Planner

Search our weather history database for the weather conditions in past years. The results will help you decide how hot, cold, wet, or windy it might be!

Date:

Astronomy

Jan. 17, 2014 Rise Set
Actual Time 7:15 AM EST 5:50 PM EST
Civil Twilight 6:49 AM EST 6:15 PM EST
Nautical Twilight 6:21 AM EST 6:44 PM EST
Astronomical Twilight 5:52 AM EST 7:12 PM EST
Moon 7:23 PM EST (1/17) 7:52 AM EST (1/17)
Length of Visible Light 11h 25m
Length of Day
10h 34m
Full, 98% of the Moon is Illuminated
Jan 17
Full
Jan 24
Last Quarter
Jan 30
New
Feb 6
First Quarter
Feb 14
Full

Hourly Weather History & Observations

Time (EST) Temp. Windchill Dew Point Humidity Pressure Visibility Wind Dir Wind Speed Gust Speed Precip Events Conditions
12:58 AM 45.3 °F 39.7 °F 33.4 °F 63% 30.17 in 10.0 mi WNW 11.5 mph - N/A   Clear
1:58 AM 45.0 °F 40.1 °F 34.0 °F 65% 30.15 in 10.0 mi WNW 9.2 mph - N/A   Clear
2:58 AM 44.2 °F 39.2 °F 34.3 °F 68% 30.15 in 10.0 mi WNW 9.2 mph - N/A   Clear
3:58 AM 44.2 °F 39.7 °F 34.2 °F 68% 30.17 in 10.0 mi NW 8.1 mph - N/A   Clear
4:58 AM 44.6 °F 39.7 °F 34.2 °F 67% 30.18 in 10.0 mi NW 9.2 mph - N/A   Clear
5:58 AM 45.1 °F 39.9 °F 34.3 °F 66% 30.19 in 10.0 mi NW 10.4 mph - N/A   Clear
6:58 AM 44.1 °F 37.1 °F 32.9 °F 65% 30.19 in 10.0 mi NW 15.0 mph - N/A   Clear
7:58 AM 45.9 °F 40.4 °F 33.6 °F 62% 30.21 in 10.0 mi NW 11.5 mph - N/A   Clear
8:58 AM 49.3 °F - 32.4 °F 52% 30.22 in 10.0 mi Variable 3.5 mph - N/A   Clear
9:58 AM 51.8 °F - 33.1 °F 49% 30.24 in 10.0 mi NW 4.6 mph - N/A   Clear
10:58 AM 54.0 °F - 28.2 °F 37% 30.25 in 10.0 mi WNW 3.5 mph - N/A   Clear
11:58 AM 58.1 °F - 22.8 °F 26% 30.22 in 10.0 mi Calm Calm - N/A   Clear
12:58 PM 59.4 °F - 23.7 °F 25% 30.19 in 10.0 mi NW 2.3 mph - N/A   Clear
1:58 PM 60.8 °F - 4.5 °F 11% 30.16 in 10.0 mi NW 2.3 mph - N/A   Clear
2:58 PM 61.9 °F - 19.9 °F 20% 30.14 in 10.0 mi Calm Calm - N/A   Clear
3:58 PM 61.7 °F - 26.8 °F 27% 30.14 in 10.0 mi ESE 3.5 mph - N/A   Clear
4:58 PM 60.3 °F - 26.6 °F 28% 30.14 in 10.0 mi ESE 4.6 mph - N/A   Clear
5:58 PM 58.5 °F - 30.6 °F 35% 30.14 in 10.0 mi SSE 3.5 mph - N/A   Clear
6:28 PM 57.2 °F - 32.0 °F 38% 30.13 in 7.0 mi SSW 3.5 mph - N/A   Clear
6:48 PM 57.2 °F - 35.6 °F 44% 30.14 in 10.0 mi WSW 5.8 mph - N/A   Clear
6:58 PM 57.0 °F - 35.2 °F 44% 30.16 in 10.0 mi WSW 5.8 mph - N/A   Clear
7:58 PM 56.1 °F - 37.8 °F 50% 30.16 in 10.0 mi SW 6.9 mph - N/A   Clear
8:03 PM 55.4 °F - 37.4 °F 51% 30.14 in 8.0 mi SW 6.9 mph - N/A   Clear
8:23 PM 53.6 °F - 37.4 °F 54% 30.14 in 10.0 mi South 5.8 mph - N/A   Clear
8:58 PM 52.2 °F - 41.0 °F 66% 30.16 in 10.0 mi South 6.9 mph - N/A   Clear
9:23 PM 51.8 °F - 41.0 °F 67% 30.15 in 7.0 mi SSW 6.9 mph - N/A   Clear
9:58 PM 55.8 °F - 37.6 °F 51% 30.18 in 6.0 mi SW 8.1 mph - N/A   Haze
10:08 PM 55.4 °F - 39.2 °F 54% 30.16 in 6.0 mi SW 8.1 mph - N/A   Haze
10:48 PM 55.4 °F - 37.4 °F 51% 30.16 in 8.0 mi SW 12.7 mph - N/A   Clear
10:58 PM 56.3 °F - 35.6 °F 46% 30.18 in 10.0 mi SW 11.5 mph - N/A   Clear
11:58 PM 55.4 °F - 40.1 °F 56% 30.17 in 10.0 mi SW 13.8 mph - N/A   Clear